This is the latest recevied weather packets stored in our database for station/object OK2ILA-10. If no packets are shown the sender has not sent any weather packets the latest 10 day(s).
| Time | Temp. | Humidity | Pressure | Rain* | Wind** | Luminosity | Snow |
|---|---|---|---|---|---|---|---|
| 1787869934 | 15° C | 70% | 1020.7 hPa | - | - | - | - |
| 1787869334 | 15° C | 70% | 1020.8 hPa | - | - | - | - |
| 1787868734 | 15.56° C | 69% | 1020.9 hPa | - | - | - | - |
| 1787868134 | 15.56° C | 69% | 1020.9 hPa | - | - | - | - |
| 1787867533 | 15.56° C | 68% | 1021 hPa | - | - | - | - |
| 1787866933 | 16.11° C | 67% | 1020.9 hPa | - | - | - | - |
| 1787866333 | 16.11° C | 68% | 1021 hPa | - | - | - | - |
| 1787865733 | 16.11° C | 67% | 1020.9 hPa | - | - | - | - |
| 1787865133 | 16.11° C | 66% | 1020.9 hPa | - | - | - | - |
| 1787864533 | 16.67° C | 66% | 1020.9 hPa | - | - | - | - |
| 1787863932 | 16.67° C | 64% | 1020.9 hPa | - | - | - | - |
| 1787863332 | 16.67° C | 64% | 1021 hPa | - | - | - | - |
| 1787862732 | 17.22° C | 63% | 1020.9 hPa | - | - | - | - |
| 1787862132 | 17.22° C | 62% | 1020.9 hPa | - | - | - | - |
| 1787861532 | 17.78° C | 61% | 1021 hPa | - | - | - | - |
| 1787860932 | 17.78° C | 61% | 1021 hPa | - | - | - | - |
| 1787860332 | 18.33° C | 60% | 1021.1 hPa | - | - | - | - |
| 1787859731 | 18.33° C | 60% | 1021.1 hPa | - | - | - | - |
| 1787859131 | 18.33° C | 60% | 1021 hPa | - | - | - | - |
| 1787858531 | 18.89° C | 59% | 1021 hPa | - | - | - | - |
| 1787857931 | 18.89° C | 59% | 1021 hPa | - | - | - | - |
| 1787857331 | 18.89° C | 59% | 1021.2 hPa | - | - | - | - |
| 1787856731 | 19.44° C | 58% | 1021.3 hPa | - | - | - | - |
| 1787856130 | 19.44° C | 56% | 1021.2 hPa | - | - | - | - |
| 1787855530 | 19.44° C | 57% | 1021.3 hPa | - | - | - | - |
* Rain since midnight (hover to see other rain measurements)
** Current wind speed in m/s (hover to see current wind gust speed)